Weather History for Alliance, NE

Change the Weather History Date:

Tuesday, January 28, 2014

  Actual Average Record
Temperature  
Mean Temperature 14 °F 25 °F  
Max Temperature 29 °F 39 °F 61 °F (1987)
Min Temperature -2 °F 11 °F -18 °F (1902)
Degree Days  
Heating Degree Days 51 40  
Month to date heating degree days 283 1142  
Since 1 July heating degree days 3372 4224  
Cooling Degree Days 0 0  
Month to date cooling degree days 0 0  
Year to date cooling degree days 0 0  
Moisture  
Dew Point -4 °F    
Average Humidity 54    
Maximum Humidity 87    
Minimum Humidity 21    
Precipitation  
Precipitation 0.00 in 0.00 in 0.10 in (1908)
Month to date precipitation 0.02 0.15  
Year to date precipitation 0.02 0.15  
Sea Level Pressure  
Sea Level Pressure 30.30 in    
Wind  
Wind Speed 10 mph (WNW)    
Max Wind Speed 23 mph    
Max Gust Speed 32 mph    
Visibility 10 miles    
Events      
T = Trace of Precipitation, MM = Missing Value Source: NWS Daily Summary

Daily Weather History Graph

Daily Weather History Graph

Search for Another Location

Airport:

Trip Planner

Search our weather history database for the weather conditions in past years. The results will help you decide how hot, cold, wet, or windy it might be!

Date:

Astronomy

Jan. 28, 2014 Rise Set
Actual Time 7:07 AM MST 5:00 PM MST
Civil Twilight 6:37 AM MST 5:30 PM MST
Nautical Twilight 6:04 AM MST 6:04 PM MST
Astronomical Twilight 5:31 AM MST 6:37 PM MST
Moon 4:52 AM MST (1/28) 2:52 PM MST (1/28)
Length of Visible Light 10h 52m
Length of Day
9h 53m
Waning Crescent, 7% of the Moon is Illuminated
Jan 28
Waning Crescent
Jan 30
New
Feb 6
First Quarter
Feb 14
Full
Feb 22
Last Quarter

Hourly Weather History & Observations

Time (MST) Temp. Windchill Dew Point Humidity Pressure Visibility Wind Dir Wind Speed Gust Speed Precip Events Conditions
12:53 AM -0.0 °F -11.6 °F -5.1 °F 79% 30.40 in 10.0 mi WSW 5.8 mph - N/A   Scattered Clouds
1:53 AM -0.9 °F -12.7 °F -6.0 °F 79% 30.40 in 10.0 mi WNW 5.8 mph - N/A   Clear
2:53 AM 1.9 °F -12.9 °F -4.0 °F 76% 30.40 in 10.0 mi WNW 9.2 mph - N/A   Clear
3:53 AM 3.0 °F -11.5 °F -2.9 °F 76% 30.39 in 10.0 mi NW 9.2 mph - N/A   Clear
4:53 AM -0.0 °F -14.2 °F -5.1 °F 79% 30.40 in 10.0 mi West 8.1 mph - N/A   Clear
5:53 AM -0.0 °F -16.3 °F -5.1 °F 79% 30.43 in 10.0 mi West 10.4 mph - N/A   Clear
6:53 AM 1.9 °F -13.8 °F -2.9 °F 80% 30.42 in 10.0 mi WNW 10.4 mph - N/A   Clear
7:53 AM 5.0 °F -10.8 °F -0.0 °F 80% 30.42 in 10.0 mi WNW 11.5 mph - N/A   Clear
8:53 AM 10.0 °F -6.5 °F 1.0 °F 67% 30.41 in 10.0 mi West 15.0 mph - N/A   Clear
9:53 AM 14.0 °F -0.8 °F 1.9 °F 59% 30.41 in 10.0 mi WNW 13.8 mph - N/A   Clear
10:53 AM 19.0 °F 3.2 °F -2.0 °F 40% 30.37 in 10.0 mi WNW 19.6 mph 27.6 mph N/A   Clear
11:53 AM 21.9 °F 6.9 °F -5.1 °F 30% 30.33 in 10.0 mi WNW 19.6 mph 25.3 mph N/A   Clear
12:53 PM 25.0 °F 9.9 °F -9.9 °F 21% 30.28 in 10.0 mi WNW 23.0 mph 27.6 mph N/A   Clear
1:53 PM 27.0 °F 13.9 °F -9.0 °F 21% 30.23 in 10.0 mi NW 18.4 mph 26.5 mph N/A   Clear
2:53 PM 28.0 °F 16.5 °F -8.0 °F 21% 30.20 in 10.0 mi NW 15.0 mph - N/A   Clear
3:53 PM 28.0 °F 17.0 °F -6.0 °F 23% 30.19 in 10.0 mi NNW 13.8 mph - N/A   Clear
4:53 PM 24.1 °F 17.0 °F -5.1 °F 28% 30.21 in 10.0 mi North 5.8 mph - N/A   Clear
5:53 PM 21.9 °F - -6.0 °F 29% 30.22 in 10.0 mi Calm Calm - N/A   Clear
6:53 PM 14.0 °F - -0.0 °F 54% 30.23 in 10.0 mi Calm Calm - N/A   Scattered Clouds
7:53 PM 9.0 °F 0.6 °F -2.0 °F 61% 30.22 in 10.0 mi South 4.6 mph - N/A   Clear
8:53 PM 10.0 °F 3.6 °F -2.0 °F 58% 30.19 in 10.0 mi West 3.5 mph - N/A   Clear
9:53 PM 5.0 °F -6.9 °F -4.0 °F 66% 30.19 in 10.0 mi West 6.9 mph - N/A   Clear
10:53 PM 7.0 °F -1.7 °F -5.1 °F 58% 30.14 in 10.0 mi West 4.6 mph - N/A   Clear
11:53 PM 5.0 °F - -5.1 °F 63% 30.12 in 10.0 mi Calm Calm - N/A   Clear